Location: Arboyeti
(42.1122°N, 44.6017°E)
Time: 10:48:41
(UTC+00:00)

Cosmos 1302 Rocket - Pass Details

Date: 19 April 2021
Orbit: 756 x 777 km, 74.0° (Epoch: 05 May)

Event Time Altitude Azimuth Distance (km) Brightness Sun altitude
Rises 16:10:22 0° 340° (NNW) 3,266 7.9 -4.9°
Reaches altitude 10° 16:12:46 10° 342° (NNW) 2,334 7.1 -5.3°
Maximum altitude 16:18:05 82° 70° (ENE) 787 4.0 -6.2°
Drops below altitude 10° 16:23:21 10° 158° (SSE) 2,309 6.1 -7.1°
Sets 16:25:43 0° 160° (SSE) 3,229 6.8 -7.5°
